This demonstration page uses our WeatherBlox Daily Observations layout. Learn more.

Left ArrowRight Arrow

Hourly Observations for January 3, 2022

Temp ( °F °C ) Dew Point ( °F °C ) Humidity (%) Winds ( mph kmh ) Pressure ( in mb ) Visibility ( mi km ) Precip ( " mm )
12:52 am 00:52 Clear 7 -13.9 0 -17.8 73 73 SSE 12 19 30.32 1027 10 16 0.00 0.00
1:52 am 01:52 Clear 6 -14.4 0 -17.8 76 76 SSE 10 17 30.32 1027 10 16 0.00 0.00
2:52 am 02:52 Clear 6 -14.4 0 -17.8 76 76 SSE 10 17 30.32 1027 10 16 0.00 0.00
3:52 am 03:52 Clear 7 -13.9 1 -17.2 76 76 SSE 10 17 30.30 1026 10 16 0.00 0.00
4:52 am 04:52 Clear 7 -13.9 1 -17.2 76 76 SSE 9 15 30.29 1026 10 16 0.00 0.00
5:52 am 05:52 Clear 7 -13.9 1 -17.2 76 76 SSE 10 17 30.29 1026 10 16 0.00 0.00
6:52 am 06:52 Clear 8 -13.3 2 -16.7 76 76 SSE 10 17 30.28 1025 10 16 0.00 0.00
7:52 am 07:52 Partly Cloudy 9 -12.8 3 -16.1 77 77 SSE 13 20 30.28 1025 10 16 0.00 0.00
8:52 am 08:52 Partly Cloudy 11 -11.7 5 -15 77 77 SSE 10 17 30.29 1026 10 16 0.00 0.00
9:52 am 09:52 Partly Cloudy 16 -8.9 8 -13.3 71 71 SSE 12 19 30.29 1026 10 16 0.00 0.00
10:52 am 10:52 Partly Cloudy 20 -6.7 11 -11.7 68 68 SSE 12 19 30.27 1025 10 16 0.00 0.00
11:52 am 11:52 Partly Cloudy 24 -4.4 13 -10.6 62 62 SSE 14 22 30.24 1024 10 16 0.00 0.00
12:52 pm 12:52 Partly Cloudy 28 -2.2 17 -8.3 63 63 SSE 14 22 30.21 1023 10 16 0.00 0.00
1:52 pm 13:52 Partly Cloudy 33 0.6 20 -6.7 58 58 SSE 15 24 30.16 1021 10 16 0.00 0.00
2:52 pm 14:52 Partly Cloudy 36 2.2 23 -5 59 59 SSE 14 22 30.15 1021 10 16 0.00 0.00
3:52 pm 15:52 Partly Cloudy 35 1.7 24 -4.4 64 64 SSE 14 22 30.14 1021 10 16 0.00 0.00
4:52 pm 16:52 Partly Cloudy 34 1.1 24 -4.4 67 67 S 14 22 30.13 1020 10 16 0.00 0.00
5:52 pm 17:52 Mostly Clear 32 0 23 -5 69 69 SSE 12 19 30.13 1020 10 16 0.00 0.00
6:52 pm 18:52 Clear 34 1.1 24 -4.4 67 67 S 15 24 30.11 1020 10 16 0.00 0.00
7:52 pm 19:52 Clear 32 0 23 -5 69 69 SSE 14 22 30.09 1019 10 16 0.00 0.00
8:52 pm 20:52 Clear 31 -0.6 23 -5 72 72 S 13 20 30.08 1019 10 16 0.00 0.00
9:52 pm 21:52 Clear 29 -1.7 23 -5 78 78 SSE 13 20 30.06 1018 10 16 0.00 0.00
10:52 pm 22:52 Clear 27 -2.8 22 -5.6 81 81 SSE 12 19 30.05 1018 10 16 0.00 0.00
11:52 pm 23:52 Mostly Clear 29 -1.7 22 -5.6 75 75 SSE 14 22 30.02 1017 10 16 0.00 0.00

Powered by AerisWeather